period_start,C,m1,H,J0,J1,J2,J3,J4,J5,JA,JB,JC,JD,JJ,JK,JN,#
2015-05-12 00:01:46,0.02,0.56,0.00,22.86,27.05,29.82,4.61,27.05,996.67,2036.00,3190.13,3178.00,3408.02,349.56,340.52,6.65,0000 0000 0000 0000 000000
2015-05-12 00:06:48,0.00,0.56,0.00,23.07,27.05,29.83,4.70,27.11,996.79,2036.00,3189.90,3177.99,3407.98,350.08,340.90,6.68,0000 0000 0000 0000 000000
2015-05-12 00:11:49,0.04,0.56,0.00,23.28,27.05,29.73,4.71,27.13,996.87,2036.00,3189.12,3177.97,3407.40,350.15,340.76,6.71,0000 0000 0000 0000 000000
2015-05-12 00:16:50,0.02,0.56,0.00,23.35,27.05,29.77,4.72,27.13,996.99,2036.00,3188.70,3177.93,3407.02,350.35,340.86,6.74,0000 0000 0000 0000 000000
2015-05-12 00:21:51,0.05,0.56,0.00,23.34,27.05,29.78,4.69,27.03,997.07,2036.00,3187.99,3177.42,3406.93,350.17,340.67,6.76,0000 0000 0000 0000 000000
2015-05-12 00:26:53,0.05,0.56,0.00,23.23,27.06,29.80,4.69,27.13,997.07,2036.00,3187.15,3177.08,3406.15,349.96,340.83,6.79,0000 0000 0000 0000 000000
2015-05-12 00:31:54,0.02,0.56,0.00,23.05,27.07,29.84,4.67,27.04,997.08,2036.00,3186.46,3177.00,3405.98,350.07,340.87,6.82,0000 0000 0000 0000 000000
2015-05-12 00:36:55,0.00,0.56,0.00,22.96,27.07,29.86,4.65,27.15,997.08,2036.00,3185.99,3177.00,3405.90,349.48,340.60,6.85,0000 0000 0000 0000 000000
2015-05-12 00:41:57,0.05,0.57,0.00,22.94,27.06,29.92,4.71,26.83,997.10,2036.00,3185.17,3177.00,3405.22,349.70,340.75,6.88,0000 0000 0000 0000 000000
2015-05-12 00:46:58,0.02,0.57,0.00,22.93,27.05,29.86,4.78,26.86,997.10,2036.00,3184.50,3176.97,3404.98,350.52,341.43,6.91,0000 0000 0000 0000 000000
2015-05-12 00:51:59,0.02,0.57,0.00,23.19,27.05,29.80,4.67,26.84,997.10,2036.00,3184.01,3176.93,3404.55,350.19,341.10,6.94,0000 0000 0000 0000 000000
2015-05-12 00:57:01,0.05,0.57,0.00,23.38,27.07,29.73,4.68,26.99,997.10,2036.00,3183.40,3176.59,3404.02,350.01,340.64,6.97,0000 0000 0000 0000 000000
2015-05-12 01:02:02,0.05,0.57,0.00,23.36,27.07,29.80,4.64,27.00,997.10,2036.00,3182.65,3176.08,3403.70,349.66,340.26,7.00,0000 0000 0000 0000 000000
2015-05-12 01:07:03,0.02,0.57,0.00,23.34,27.07,29.79,4.63,27.01,997.13,2036.00,3182.01,3176.01,3403.04,349.47,340.28,7.03,0000 0000 0000 0000 000000
2015-05-12 01:12:05,0.03,0.57,0.00,23.19,27.07,29.85,4.74,27.07,997.31,2036.00,3181.33,3176.00,3402.99,350.35,341.23,7.06,0000 0000 0000 0000 000000
2015-05-12 01:17:06,0.03,0.57,0.00,23.04,27.07,29.91,4.70,27.10,997.31,2036.00,3180.80,3176.00,3402.44,349.98,341.03,7.09,0000 0000 0000 0000 000000
2015-05-12 01:22:07,0.02,0.57,0.00,23.03,27.07,29.90,4.68,27.10,997.53,2036.00,3180.04,3175.95,3402.01,349.99,341.11,7.12,0000 0000 0000 0000 000000
2015-05-12 01:27:08,0.04,0.57,0.00,22.96,27.07,29.90,4.71,27.07,997.57,2036.00,3179.30,3175.71,3401.81,350.20,341.21,7.15,0000 0000 0000 0000 000000
2015-05-12 01:32:10,0.05,0.58,0.00,23.14,27.07,29.85,4.71,27.14,997.57,2035.98,3178.77,3175.11,3401.06,349.87,340.95,7.17,0000 0000 0000 0000 000000
2015-05-12 01:37:11,0.02,0.58,0.00,23.39,27.07,29.81,4.71,27.07,997.58,2035.98,3178.04,3175.02,3401.00,350.54,341.23,7.20,0000 0000 0000 0000 000000
2015-05-12 01:42:13,0.05,0.58,0.00,23.34,27.07,29.81,4.72,27.12,997.60,2035.98,3177.43,3175.00,3400.36,350.01,340.81,7.23,0000 0000 0000 0000 000000
2015-05-12 01:47:14,0.01,0.58,0.00,23.39,27.08,29.81,4.70,27.18,997.64,2035.98,3176.97,3175.00,3400.00,350.42,341.16,7.26,0000 0000 0000 0000 000000
2015-05-12 01:52:15,0.04,0.58,0.00,23.48,27.10,29.83,4.67,27.15,997.67,2035.98,3176.21,3174.95,3399.74,349.33,339.99,7.29,0000 0000 0000 0000 000000
2015-05-12 01:57:17,0.05,0.58,0.00,23.24,27.10,29.87,4.67,27.20,997.82,2035.97,3175.56,3174.68,3399.08,350.13,341.10,7.32,0000 0000 0000 0000 000000
2015-05-12 02:02:18,0.02,0.58,0.00,23.12,27.10,29.92,4.64,27.27,997.95,2035.97,3174.92,3174.14,3398.98,350.12,341.47,7.35,0000 0000 0000 0000 000000
2015-05-12 02:07:20,0.04,0.58,0.00,23.06,27.10,29.92,4.68,27.12,998.04,2035.94,3174.10,3174.01,3398.28,349.96,341.28,7.38,0000 0000 0000 0000 000000
2015-05-12 02:12:21,0.02,0.58,0.00,23.01,27.10,29.92,4.70,26.98,998.06,2035.95,3173.47,3174.00,3398.02,349.51,340.79,7.41,0000 0000 0000 0000 000000
2015-05-12 02:17:22,0.01,0.59,0.00,23.23,27.09,29.90,4.69,26.97,998.06,2035.93,3172.96,3173.99,3397.93,350.04,341.37,7.44,0000 0000 0000 0000 000000
2015-05-12 02:22:23,0.05,0.59,0.00,23.44,27.10,29.81,4.69,26.98,998.06,2035.94,3172.18,3173.94,3397.25,349.66,340.56,7.47,0000 0000 0000 0000 000000
2015-05-12 02:27:25,0.05,0.59,0.00,23.40,27.10,29.87,4.73,27.07,998.06,2035.93,3171.46,3173.47,3396.99,350.14,341.13,7.50,0000 0000 0000 0000 000000
2015-05-12 02:32:26,0.02,0.59,0.00,23.43,27.10,29.84,4.68,26.87,998.07,2035.85,3170.82,3173.12,3396.51,350.18,341.08,7.53,0000 0000 0000 0000 000000
2015-05-12 02:37:27,-0.02,0.59,0.00,23.30,27.10,29.86,4.70,26.97,998.08,2035.61,3170.02,3173.01,3396.06,350.06,341.02,7.56,0000 0000 0000 0000 000000
2015-05-12 02:42:28,0.03,0.59,0.00,23.10,27.10,29.91,4.69,27.00,998.15,2035.43,3169.15,3173.00,3395.66,350.10,341.39,7.59,0000 0000 0000 0000 000000
2015-05-12 02:47:29,0.03,0.59,0.00,23.08,27.10,29.94,4.71,26.93,998.20,2035.33,3168.39,3172.96,3395.03,350.01,341.28,7.61,0000 0000 0000 0000 000000
2015-05-12 02:52:31,0.05,0.59,0.00,23.00,27.10,29.92,4.70,26.95,998.44,2035.43,3167.77,3172.81,3394.97,349.65,341.32,7.64,0000 0000 0000 0000 000000
2015-05-12 02:57:32,0.04,0.59,0.00,22.93,27.10,29.89,4.67,27.01,998.48,2035.42,3167.02,3172.31,3394.29,349.98,341.44,7.67,0000 0000 0000 0000 000000
2015-05-12 03:02:33,0.08,0.60,0.00,23.08,27.10,29.84,4.72,27.07,998.52,2035.62,3166.15,3172.04,3394.01,350.26,341.62,7.70,0000 0000 0000 0000 000000
2015-05-12 03:07:34,0.03,0.60,0.00,23.31,27.10,29.83,4.70,27.11,998.53,2035.75,3165.75,3172.02,3393.95,349.75,340.83,7.73,0000 0000 0000 0000 000000
2015-05-12 03:12:35,0.04,0.60,0.00,23.50,27.10,29.80,4.72,27.07,998.54,2035.68,3165.03,3172.00,3393.25,350.34,341.59,7.76,0000 0000 0000 0000 000000
2015-05-12 03:17:36,0.00,0.60,0.00,23.44,27.11,29.89,4.60,26.88,998.55,2035.73,3164.37,3171.98,3393.00,349.56,340.34,7.79,0000 0000 0000 0000 000000
2015-05-12 03:22:38,0.04,0.60,0.00,23.26,27.12,29.94,4.70,27.05,998.55,2035.57,3163.46,3171.81,3392.74,349.93,341.08,7.82,0000 0000 0000 0000 000000
2015-05-12 03:27:39,0.02,0.60,0.00,23.25,27.12,29.95,4.74,26.98,998.55,2035.31,3162.84,3171.18,3392.05,350.46,341.72,7.85,0000 0000 0000 0000 000000
2015-05-12 03:32:40,0.01,0.60,0.00,23.20,27.12,29.98,4.69,27.09,998.56,2035.26,3162.04,3171.01,3391.90,349.58,341.08,7.88,0000 0000 0000 0000 000000
2015-05-12 03:37:41,0.01,0.60,0.00,23.14,27.12,29.95,4.73,27.23,998.60,2035.09,3161.37,3171.00,3391.70,349.90,341.26,7.91,0000 0000 0000 0000 000000
2015-05-12 03:42:43,0.04,0.60,0.00,23.08,27.12,29.98,4.71,27.07,998.57,2035.07,3160.76,3170.97,3391.06,350.15,341.53,7.94,0000 0000 0000 0000 000000
2015-05-12 03:47:44,0.03,0.60,0.00,23.07,27.11,29.95,4.73,27.02,998.57,2035.06,3159.99,3170.72,3390.95,350.45,341.74,7.97,0000 0000 0000 0000 000000
2015-05-12 03:52:45,0.07,0.60,0.00,23.28,27.12,29.91,4.75,27.06,998.56,2035.05,3159.18,3170.17,3390.34,349.87,341.21,7.99,0000 0000 0000 0000 000000
2015-05-12 03:57:47,0.03,0.60,0.00,23.54,27.12,29.90,4.70,27.04,998.58,2035.08,3158.66,3170.03,3390.01,349.88,340.78,8.02,0000 0000 0000 0000 000000
2015-05-12 04:02:48,0.01,0.61,0.00,23.54,27.12,29.90,4.74,27.00,998.72,2035.09,3158.00,3170.00,3389.88,350.06,341.08,8.05,0000 0000 0000 0000 000000
2015-05-12 04:07:49,0.04,0.61,0.00,23.35,27.14,29.96,4.66,27.17,998.84,2035.06,3157.23,3169.96,3389.15,349.87,341.20,8.08,0000 0000 0000 0000 000000
2015-05-12 04:12:51,0.06,0.61,0.00,23.31,27.15,29.95,4.59,27.20,998.99,2035.02,3156.38,3169.36,3388.83,349.47,340.89,8.11,0000 0000 0000 0000 000000
2015-05-12 04:17:52,0.04,0.61,0.00,23.31,27.15,29.97,4.70,27.12,999.04,2035.02,3155.75,3169.03,3388.08,350.03,341.14,8.14,0000 0000 0000 0000 000000
2015-05-12 04:22:53,0.02,0.61,0.00,23.26,27.15,29.99,4.69,27.21,999.04,2035.01,3154.95,3169.00,3387.97,350.20,341.52,8.17,0000 0000 0000 0000 000000
2015-05-12 04:27:55,0.04,0.61,0.00,23.21,27.15,30.00,4.71,27.08,999.04,2035.01,3154.06,3168.96,3387.40,349.91,341.06,8.20,0000 0000 0000 0000 000000
2015-05-12 04:32:56,0.06,0.61,0.00,23.18,27.15,29.99,4.73,27.07,999.04,2035.03,3153.24,3168.54,3387.01,350.11,341.58,8.23,0000 0000 0000 0000 000000
2015-05-12 04:37:57,0.02,0.61,0.00,23.17,27.15,29.99,4.70,27.16,999.05,2035.01,3152.81,3168.08,3386.91,349.98,341.47,8.26,0000 0000 0000 0000 000000
2015-05-12 04:42:58,0.04,0.62,0.00,23.15,27.15,30.00,4.73,27.18,999.05,2035.01,3151.96,3168.00,3386.07,349.99,341.58,8.29,0000 0000 0000 0000 000000
2015-05-12 04:48:00,0.04,0.62,0.00,23.14,27.15,30.02,4.76,27.11,999.05,2035.01,3151.08,3167.96,3385.80,349.95,341.43,8.32,0000 0000 0000 0000 000000
2015-05-12 04:53:01,0.06,0.62,0.00,23.15,27.15,29.99,4.76,27.23,999.06,2035.00,3150.23,3167.73,3385.09,350.03,341.38,8.35,0000 0000 0000 0000 000000
2015-05-12 04:58:02,0.05,0.62,0.00,23.16,27.14,30.02,4.70,27.13,999.10,2035.01,3149.52,3167.09,3384.96,350.02,341.69,8.38,0000 0000 0000 0000 000000
2015-05-12 05:03:03,0.04,0.62,0.00,23.15,27.14,29.97,4.64,27.18,999.14,2035.00,3148.76,3167.00,3384.18,349.43,341.16,8.40,0000 0000 0000 0000 000000
2015-05-12 05:08:05,0.02,0.62,0.00,23.16,27.13,29.99,4.77,27.20,999.29,2035.00,3148.02,3166.93,3383.99,350.52,342.08,8.43,0000 0000 0000 0000 000000
2015-05-12 05:13:06,0.07,0.62,0.00,23.19,27.13,30.01,4.67,27.15,999.50,2035.00,3147.28,3166.41,3383.53,349.86,341.84,8.46,0000 0000 0000 0000 000000
2015-05-12 05:18:07,0.04,0.63,0.00,23.19,27.12,29.98,4.77,27.18,999.53,2035.00,3146.39,3166.02,3383.03,350.27,341.97,8.49,0000 0000 0000 0000 000000
2015-05-12 05:23:09,0.03,0.63,0.00,23.20,27.12,29.97,4.68,27.20,999.53,2035.00,3145.72,3166.00,3382.66,349.93,341.48,8.52,0000 0000 0000 0000 000000
2015-05-12 05:28:10,0.05,0.63,0.00,23.22,27.12,29.98,4.76,27.23,999.53,2035.00,3144.80,3165.72,3382.03,350.25,341.72,8.55,0000 0000 0000 0000 000000
2015-05-12 05:33:11,0.06,0.63,0.00,23.22,27.12,29.97,4.69,27.21,999.53,2035.00,3143.88,3165.04,3381.49,349.63,341.24,8.58,0000 0000 0000 0000 000000
2015-05-12 05:38:13,0.03,0.63,0.00,23.24,27.12,29.98,4.75,27.34,999.54,2035.00,3142.97,3165.00,3381.14,350.13,341.69,8.61,0000 0000 0000 0000 000000
2015-05-12 05:43:14,0.08,0.63,0.00,23.25,27.12,29.96,4.70,27.25,999.54,2035.00,3142.00,3164.55,3380.29,350.52,342.16,8.64,0000 0000 0000 0000 000000
2015-05-12 05:48:15,0.04,0.64,0.00,23.20,27.12,29.94,4.75,27.19,999.53,2035.00,3141.03,3164.03,3379.98,350.02,341.57,8.67,0000 0000 0000 0000 000000
2015-05-12 05:53:17,0.04,0.64,0.00,23.33,27.12,29.92,4.67,27.17,999.53,2035.00,3140.12,3164.00,3379.43,350.60,341.92,8.70,0000 0000 0000 0000 000000
2015-05-12 05:58:18,0.05,0.64,0.00,23.47,27.12,29.89,4.64,27.04,999.56,2035.00,3139.37,3163.73,3378.99,349.66,341.08,8.73,0000 0000 0000 0000 000000
2015-05-12 06:03:19,0.07,0.64,0.00,23.56,27.14,29.90,4.69,27.16,999.77,2035.00,3138.45,3163.06,3378.36,350.08,341.42,8.76,0000 0000 0000 0000 000000
2015-05-12 06:08:20,0.03,0.64,0.00,23.60,27.15,29.93,4.66,27.01,999.98,2035.00,3137.61,3162.99,3378.00,349.93,341.30,8.79,0000 0000 0000 0000 000000
2015-05-12 06:13:22,0.07,0.64,0.00,23.66,27.16,29.96,4.66,27.07,999.99,2035.00,3136.76,3162.51,3377.41,350.06,341.29,8.81,0000 0000 0000 0000 000000
2015-05-12 06:18:23,0.03,0.64,0.00,23.75,27.17,29.99,4.66,27.09,999.95,2035.00,3135.80,3162.01,3376.98,349.73,340.82,8.84,0000 0000 0000 0000 000000
2015-05-12 06:23:24,0.05,0.65,0.00,23.86,27.19,30.00,4.71,27.16,999.90,2035.00,3135.01,3161.87,3376.20,350.18,341.23,8.87,0000 0000 0000 0000 000000
2015-05-12 06:28:25,0.07,0.65,0.00,23.97,27.20,30.04,4.65,27.08,1000.00,2035.00,3134.13,3161.10,3375.85,349.53,340.34,8.90,0000 0000 0000 0000 000000
2015-05-12 06:33:27,0.04,0.65,0.00,24.03,27.22,30.07,4.63,27.08,1000.01,2034.99,3133.30,3160.98,3375.08,349.61,340.54,8.93,0000 0000 0000 0000 000000
2015-05-12 06:38:28,0.04,0.65,0.00,24.05,27.23,30.06,4.64,27.07,1000.03,2034.98,3132.63,3160.74,3374.87,350.16,341.09,8.96,0000 0000 0000 0000 000000
2015-05-12 06:43:29,0.08,0.65,0.00,24.09,27.25,30.08,4.62,27.16,1000.04,2034.97,3131.49,3160.04,3374.05,349.75,340.33,8.99,0000 0000 0000 0000 000000
2015-05-12 06:48:30,0.04,0.65,0.00,24.02,27.25,30.10,4.72,27.13,1000.37,2034.97,3130.64,3159.96,3373.53,349.44,340.49,9.02,0000 0000 0000 0000 000000
2015-05-12 06:53:31,0.06,0.66,0.00,23.87,27.27,30.09,4.70,27.15,1000.49,2034.96,3129.68,3159.43,3373.01,349.68,340.81,9.05,0000 0000 0000 0000 000000
2015-05-12 06:58:33,0.04,0.66,0.00,23.70,27.27,30.13,4.66,27.23,1000.50,2034.95,3128.79,3159.02,3372.63,349.96,341.36,9.08,0000 0000 0000 0000 000000
2015-05-12 07:03:34,0.02,0.66,0.00,23.62,27.27,30.16,4.70,27.18,1000.50,2034.86,3127.88,3158.89,3372.00,350.09,341.50,9.11,0000 0000 0000 0000 000000
2015-05-12 07:08:35,0.03,0.66,0.00,23.56,27.27,30.18,4.70,27.16,1000.50,2034.68,3127.01,3158.17,3371.35,350.09,341.36,9.14,0000 0000 0000 0000 000000
2015-05-12 07:13:36,0.03,0.66,0.00,23.49,27.27,30.15,4.67,27.17,1000.51,2034.55,3126.13,3158.00,3370.99,350.26,341.91,9.17,0000 0000 0000 0000 000000
2015-05-12 07:18:37,0.03,0.66,0.00,23.45,27.27,30.14,4.57,27.09,1000.50,2034.44,3125.29,3157.91,3370.39,349.66,341.38,9.20,0000 0000 0000 0000 000000
2015-05-12 07:23:39,0.04,0.66,0.00,23.42,27.27,30.11,4.70,27.07,1000.50,2034.33,3124.47,3157.23,3369.99,350.12,341.75,9.22,0000 0000 0000 0000 000000
2015-05-12 07:28:40,0.07,0.66,0.00,23.40,27.27,30.08,4.68,27.15,1000.50,2034.42,3123.72,3157.00,3369.52,349.71,341.43,9.25,0000 0000 0000 0000 000000
2015-05-12 07:33:41,0.01,0.67,0.00,23.37,27.27,30.03,4.57,27.11,1000.50,2034.42,3122.97,3156.96,3369.02,349.81,341.60,9.28,0000 0000 0000 0000 000000
2015-05-12 07:38:42,0.03,0.67,0.00,23.51,27.27,30.01,4.68,27.14,1000.51,2034.23,3122.31,3156.67,3368.86,350.15,341.67,9.31,0000 0000 0000 0000 000000
2015-05-12 07:43:43,0.06,0.67,0.00,23.73,27.27,29.92,4.58,27.13,1000.52,2034.21,3121.61,3156.05,3368.05,349.50,340.85,9.34,0000 0000 0000 0000 000000
2015-05-12 07:48:45,0.02,0.67,0.00,23.96,27.27,29.92,4.75,27.16,1000.63,2034.16,3120.90,3156.00,3367.95,350.62,341.61,9.37,0000 0000 0000 0000 000000
2015-05-12 07:53:46,0.05,0.67,0.00,24.03,27.27,29.99,4.69,27.10,1000.60,2034.20,3120.07,3155.93,3367.25,350.68,341.64,9.40,0000 0000 0000 0000 000000
2015-05-12 07:58:47,0.05,0.67,0.00,23.99,27.30,30.03,4.69,27.09,1000.70,2034.14,3119.40,3155.34,3367.00,349.96,341.06,9.43,0000 0000 0000 0000 000000
2015-05-12 08:03:49,0.02,0.67,0.00,23.92,27.30,30.06,4.68,27.07,1000.96,2034.05,3118.65,3155.00,3366.41,350.45,341.73,9.46,0000 0000 0000 0000 000000
2015-05-12 08:08:50,0.02,0.67,0.00,23.80,27.30,30.06,4.75,27.18,1000.99,2034.02,3117.87,3154.94,3366.00,350.21,341.49,9.49,0000 0000 0000 0000 000000
2015-05-12 08:13:52,0.07,0.67,0.00,23.79,27.32,30.07,4.63,27.13,1001.01,2034.01,3117.05,3154.40,3365.56,349.62,341.07,9.52,0000 0000 0000 0000 000000
2015-05-12 08:18:53,0.04,0.68,0.00,23.76,27.32,30.08,4.68,27.15,1001.03,2034.01,3116.34,3154.02,3365.02,350.23,341.71,9.55,0000 0000 0000 0000 000000
2015-05-12 08:23:54,0.02,0.68,0.00,23.72,27.32,30.09,4.71,27.15,1001.08,2034.02,3115.76,3154.00,3364.92,349.90,341.45,9.58,0000 0000 0000 0000 000000
2015-05-12 08:28:56,0.04,0.68,0.00,23.68,27.32,30.09,4.68,27.13,1001.25,2034.01,3114.99,3153.90,3364.13,349.27,341.12,9.61,0000 0000 0000 0000 000000
2015-05-12 08:33:57,0.06,0.68,0.00,23.67,27.32,30.10,4.77,27.13,1001.42,2034.00,3114.10,3153.14,3363.96,350.11,341.81,9.63,0000 0000 0000 0000 000000
2015-05-12 08:38:58,0.03,0.68,0.00,23.67,27.32,30.08,4.74,27.10,1001.46,2034.00,3113.62,3153.01,3363.74,350.13,342.00,9.66,0000 0000 0000 0000 000000
2015-05-12 08:43:59,0.03,0.68,0.00,23.66,27.32,30.09,4.78,27.18,1001.48,2034.00,3112.81,3152.99,3363.02,350.34,342.19,9.69,0000 0000 0000 0000 000000
2015-05-12 08:49:00,0.05,0.68,0.00,23.63,27.32,30.11,4.64,27.13,1001.48,2034.01,3112.00,3152.74,3362.61,349.64,341.40,9.72,0000 0000 0000 0000 000000
2015-05-12 08:54:02,0.06,0.69,0.00,23.64,27.32,30.09,4.64,27.24,1001.48,2034.00,3111.15,3152.06,3362.03,350.53,342.49,9.75,0000 0000 0000 0000 000000
2015-05-12 08:59:03,0.03,0.69,0.00,23.65,27.32,30.10,4.62,27.10,1001.48,2034.00,3110.44,3152.00,3361.88,349.74,341.72,9.78,0000 0000 0000 0000 000000
2015-05-12 09:04:04,0.03,0.69,0.00,23.68,27.32,30.08,4.69,27.11,1001.48,2034.00,3109.90,3151.96,3361.13,349.91,341.63,9.81,0000 0000 0000 0000 000000
2015-05-12 09:09:05,0.05,0.69,0.00,23.72,27.32,30.08,4.74,27.06,1001.49,2034.00,3109.11,3151.51,3360.97,350.01,341.64,9.84,0000 0000 0000 0000 000000
2015-05-12 09:14:07,0.05,0.69,0.00,23.75,27.32,30.06,4.67,27.07,1001.48,2034.00,3108.39,3151.04,3360.40,349.63,341.26,9.87,0000 0000 0000 0000 000000
2015-05-12 09:19:08,0.01,0.69,0.00,23.78,27.32,30.03,4.67,27.02,1001.49,2034.00,3107.84,3151.01,3360.01,349.85,341.33,9.90,0000 0000 0000 0000 000000
2015-05-12 09:24:09,0.03,0.69,0.00,23.82,27.32,30.00,4.59,27.08,1001.54,2034.00,3107.07,3150.97,3359.74,349.64,341.12,9.93,0000 0000 0000 0000 000000
2015-05-12 09:29:11,0.07,0.69,0.00,23.86,27.32,29.97,4.66,27.07,1001.54,2034.00,3106.35,3150.45,3359.06,350.29,341.79,9.96,0000 0000 0000 0000 000000
2015-05-12 09:34:12,0.03,0.70,0.00,23.89,27.32,29.93,4.61,27.07,1001.64,2034.00,3105.72,3150.03,3358.86,349.62,340.94,9.99,0000 0000 0000 0000 000000
2015-05-12 09:39:13,0.02,0.70,0.00,23.92,27.32,29.92,4.69,27.07,1001.79,2034.00,3105.05,3150.00,3358.66,349.70,341.26,10.02,0000 0000 0000 0000 000000
2015-05-12 09:44:14,0.03,0.70,0.00,23.97,27.32,29.93,4.71,27.11,1001.91,2034.00,3104.35,3149.96,3358.01,349.94,341.22,10.04,0000 0000 0000 0000 000000
2015-05-12 09:49:15,0.05,0.70,0.00,24.01,27.32,29.89,4.67,27.21,1001.97,2034.00,3103.79,3149.55,3357.61,349.83,341.43,10.07,0000 0000 0000 0000 000000
2015-05-12 09:54:17,0.04,0.70,0.00,24.05,27.32,29.85,4.74,27.20,1001.97,2033.99,3103.04,3149.05,3357.03,350.07,342.05,10.10,0000 0000 0000 0000 000000
2015-05-12 09:59:18,0.03,0.70,0.00,24.07,27.34,29.84,4.69,27.20,1001.97,2033.99,3102.36,3148.99,3356.85,349.79,341.24,10.13,0000 0000 0000 0000 000000
2015-05-12 10:04:19,0.04,0.70,0.00,24.09,27.35,29.82,4.76,27.19,1001.97,2033.99,3101.61,3148.96,3356.07,350.17,341.54,10.16,0000 0000 0000 0000 000000
2015-05-12 10:09:21,0.04,0.70,0.00,24.11,27.35,29.82,4.75,27.15,1001.98,2033.99,3100.96,3148.46,3356.00,349.85,341.25,10.19,0000 0000 0000 0000 000000
2015-05-12 10:14:22,0.05,0.71,0.00,24.12,27.36,29.83,4.64,27.14,1001.98,2033.98,3100.14,3148.05,3355.63,349.81,341.15,10.22,0000 0000 0000 0000 000000
2015-05-12 10:19:23,0.03,0.71,0.00,24.12,27.37,29.85,4.64,27.08,1001.98,2033.98,3099.57,3148.00,3355.03,350.08,341.51,10.25,0000 0000 0000 0000 000000
2015-05-12 10:24:25,0.01,0.71,0.00,24.11,27.38,29.86,4.76,27.15,1001.97,2033.98,3098.88,3147.97,3354.94,349.95,341.40,10.28,0000 0000 0000 0000 000000
2015-05-12 10:29:26,0.06,0.71,0.00,24.11,27.40,29.88,4.58,27.12,1001.97,2033.98,3098.07,3147.64,3354.30,349.56,340.72,10.31,0000 0000 0000 0000 000000
2015-05-12 10:34:27,0.04,0.71,0.00,24.12,27.40,29.90,4.69,27.16,1001.99,2033.95,3097.35,3147.06,3353.99,349.80,341.21,10.34,0000 0000 0000 0000 000000
2015-05-12 10:39:28,0.03,0.71,0.00,24.12,27.41,29.92,4.60,27.14,1001.99,2033.94,3096.74,3147.00,3353.72,349.89,341.29,10.37,0000 0000 0000 0000 000000
2015-05-12 10:44:30,0.02,0.71,0.00,24.10,27.42,29.95,4.70,27.20,1001.98,2033.89,3095.98,3146.92,3353.02,350.12,341.76,10.40,0000 0000 0000 0000 000000
2015-05-12 10:49:31,0.06,0.71,0.00,24.10,27.42,29.97,4.65,27.25,1001.98,2033.84,3095.14,3146.33,3352.76,350.28,341.60,10.43,0000 0000 0000 0000 000000
2015-05-12 10:54:32,0.04,0.72,0.00,24.11,27.44,29.99,4.68,27.14,1001.98,2033.77,3094.50,3146.01,3352.08,350.80,342.16,10.46,0000 0000 0000 0000 000000
2015-05-12 10:59:34,-0.02,0.72,0.00,24.11,27.45,30.00,4.68,27.08,1002.00,2033.65,3093.97,3145.98,3351.98,350.08,341.54,10.48,0000 0000 0000 0000 000000
2015-05-12 11:04:35,0.01,0.72,0.00,24.10,27.45,30.01,4.73,27.11,1002.01,2033.32,3093.15,3145.74,3351.35,349.97,341.48,10.51,0000 0000 0000 0000 000000
2015-05-12 11:09:36,0.04,0.72,0.00,24.08,27.45,30.03,4.74,27.16,1002.09,2033.15,3092.34,3145.11,3351.00,350.39,341.85,10.54,0000 0000 0000 0000 000000
2015-05-12 11:14:37,0.03,0.72,0.00,24.07,27.47,30.04,4.67,27.22,1002.02,2033.09,3091.72,3145.00,3350.53,350.06,341.39,10.57,0000 0000 0000 0000 000000
2015-05-12 11:19:38,0.02,0.72,0.00,24.07,27.47,30.05,4.67,27.04,1002.10,2033.05,3090.95,3144.92,3349.99,350.28,341.75,10.60,0000 0000 0000 0000 000000
2015-05-12 11:24:39,0.06,0.72,0.00,24.07,27.47,30.07,4.71,27.14,1002.43,2033.02,3090.14,3144.43,3349.78,349.86,341.46,10.63,0000 0000 0000 0000 000000
2015-05-12 11:29:41,0.04,0.72,0.00,24.07,27.48,30.07,4.78,27.18,1002.25,2033.02,3089.59,3144.04,3349.09,350.58,341.97,10.66,0000 0000 0000 0000 000000
2015-05-12 11:34:42,0.01,0.72,0.00,24.06,27.50,30.08,4.72,27.17,1002.07,2033.02,3088.97,3144.00,3348.99,349.98,341.33,10.69,0000 0000 0000 0000 000000
2015-05-12 11:39:43,0.05,0.72,0.00,24.07,27.50,30.08,4.75,27.13,1002.24,2033.04,3088.39,3143.99,3348.71,349.99,341.41,10.72,0000 0000 0000 0000 000000
2015-05-12 11:44:44,0.04,0.72,0.00,24.07,27.50,30.10,4.76,27.31,1002.38,2033.02,3087.69,3143.72,3348.03,349.91,341.50,10.75,0000 0000 0000 0000 000000
2015-05-12 11:49:46,0.04,0.73,0.00,24.05,27.50,30.12,4.77,27.21,1002.43,2033.03,3086.91,3143.19,3347.94,350.49,342.21,10.78,0000 0000 0000 0000 000000
2015-05-12 11:54:47,0.04,0.73,0.00,24.03,27.50,30.12,4.70,27.23,1002.34,2033.01,3086.09,3143.01,3347.35,349.89,341.39,10.81,0000 0000 0000 0000 000000
2015-05-12 11:59:48,0.02,0.73,0.00,24.02,27.51,30.12,4.66,27.18,1002.15,2033.02,3085.63,3143.00,3347.01,350.22,341.90,10.84,0000 0000 0000 0000 000000
2015-05-12 12:04:49,0.02,0.73,0.00,24.02,27.52,30.12,4.59,27.27,1002.38,2033.02,3085.01,3142.93,3346.84,349.48,341.13,10.86,0000 0000 0000 0000 000000
2015-05-12 12:09:50,0.08,0.73,0.00,24.02,27.52,30.15,4.79,27.17,1002.39,2033.00,3084.31,3142.43,3346.12,350.27,341.82,10.89,0000 0000 0000 0000 000000
2015-05-12 12:14:51,0.02,0.73,0.00,24.02,27.52,30.14,4.71,27.18,1002.35,2033.00,3083.69,3142.01,3345.98,350.27,341.86,10.92,0000 0000 0000 0000 000000
2015-05-12 12:19:52,0.04,0.73,0.00,24.00,27.52,30.15,4.73,27.31,1002.01,2033.00,3083.01,3141.99,3345.33,350.30,341.80,10.95,0000 0000 0000 0000 000000
2015-05-12 12:24:53,0.03,0.73,0.00,24.01,27.52,30.16,4.71,27.18,1002.07,2033.00,3082.19,3141.92,3345.01,349.93,341.46,10.98,0000 0000 0000 0000 000000
2015-05-12 12:29:55,0.05,0.73,0.00,24.00,27.52,30.15,4.78,27.23,1002.26,2033.00,3081.59,3141.44,3344.91,350.49,342.11,11.01,0000 0000 0000 0000 000000
2015-05-12 12:34:56,0.03,0.74,0.00,23.99,27.52,30.16,4.75,27.18,1002.17,2033.01,3081.01,3141.08,3344.42,350.05,341.69,11.04,0000 0000 0000 0000 000000
2015-05-12 12:39:57,0.02,0.74,0.00,23.97,27.52,30.18,4.72,27.23,1002.23,2033.00,3080.56,3141.01,3344.48,349.80,341.49,11.07,0000 0000 0000 0000 000000
2015-05-12 12:44:59,0.01,0.74,0.00,23.97,27.52,30.19,4.67,27.17,1002.31,2033.00,3079.95,3140.99,3343.93,349.99,341.70,11.10,0000 0000 0000 0000 000000
2015-05-12 12:50:00,0.05,0.74,0.00,23.96,27.53,30.18,4.72,27.13,1002.39,2033.00,3079.13,3140.96,3343.20,349.94,341.87,11.13,0000 0000 0000 0000 000000
2015-05-12 12:55:02,0.03,0.74,0.00,23.95,27.53,30.18,4.66,27.14,1002.43,2033.00,3078.59,3140.80,3343.01,349.57,341.33,11.16,0000 0000 0000 0000 000000
2015-05-12 13:00:03,0.03,0.74,0.00,23.95,27.54,30.19,4.72,27.17,1002.45,2033.00,3077.98,3140.17,3342.98,349.61,341.37,11.19,0000 0000 0000 0000 000000
2015-05-12 13:05:04,0.05,0.74,0.00,23.95,27.54,30.21,4.81,27.26,1002.39,2033.00,3077.20,3140.00,3342.24,350.97,342.68,11.22,0000 0000 0000 0000 000000